Theta_e
308 308 308 309 309 309 310 310 311 313 316 317 318 317 317 316 315 317 318 316 315 313 313 315 316 317 318 319 318 317 318 319 319 319 320 318 318 317 316 318 316 315 315 312 310
308 308 308 309 309 310 310 311 312 314 317 318 319 318 317 316 316 317 314 313 313 312 315 315 316 316 318 319 319 319 318 317 318 319 319 318 318 318 317 317 316 315 312 311 311
309 309 308 308 309 310 311 312 314 315 318 319 319 319 317 314 319 317 313 314 312 312 314 315 316 316 317 318 319 318 317 315 317 318 319 318 318 317 317 318 317 317 314 311 311
309 309 309 309 309 310 312 314 315 316 318 319 319 319 317 317 321 316 311 313 312 313 315 316 316 316 317 318 318 318 316 316 318 318 318 318 318 318 317 317 313 313 311 311 311
310 309 309 308 309 311 312 314 317 318 319 319 319 319 317 319 320 314 312 312 312 314 316 316 315 316 317 317 318 318 318 317 318 317 317 317 318 318 317 312 310 309 310 310 309
312 312 310 309 309 311 313 315 317 319 320 320 319 317 317 321 315 315 312 311 314 315 316 315 315 316 316 317 317 317 317 317 317 317 316 316 317 315 316 312 311 310 309 308 307
314 313 312 313 312 312 313 315 317 319 320 320 317 314 318 320 317 315 311 312 313 315 315 315 315 316 316 317 315 316 316 317 317 316 316 315 316 315 315 311 311 310 309 307 305
317 314 313 313 314 314 314 315 317 320 320 319 315 314 320 314 318 315 313 313 312 313 314 314 315 316 317 315 316 317 317 320 319 315 314 315 321 318 312 312 312 310 309 307 304
316 315 313 313 314 315 315 315 318 320 320 318 317 317 320 311 316 317 315 314 313 313 312 312 316 317 315 317 319 319 321 322 320 316 316 316 321 315 312 313 313 312 310 308 305
315 316 313 313 314 315 315 316 319 320 318 315 314 318 316 315 313 314 312 313 314 314 314 315 316 317 317 319 322 322 322 321 321 317 315 317 317 315 312 313 314 313 310 308 306
315 316 313 314 315 316 316 321 320 322 318 320 321 320 314 309 311 313 312 312 314 315 318 316 317 319 320 319 320 319 320 321 321 316 316 318 318 319 313 312 313 313 310 308 306
315 315 315 316 316 316 318 320 320 316 322 320 320 318 312 311 312 313 311 315 315 317 317 316 318 319 319 319 319 318 319 320 320 315 314 317 319 318 316 314 314 313 311 309 304
316 315 315 316 317 317 318 320 319 315 322 320 320 320 315 311 316 314 312 315 316 317 317 319 319 316 316 316 317 318 319 320 320 316 314 316 318 319 318 315 313 312 311 308 305
317 315 315 315 317 317 318 319 318 316 321 319 320 321 314 314 316 312 312 313 312 317 317 318 318 315 316 317 317 319 318 317 317 317 322 317 323 322 321 316 312 310 309 307 305
319 316 315 315 317 317 318 318 320 320 323 320 319 312 313 318 314 310 309 311 316 314 315 318 314 314 316 317 316 318 315 317 317 319 320 321 320 322 321 319 315 311 308 306 304
321 318 316 316 318 318 319 319 321 322 323 321 315 316 316 317 312 309 309 310 313 315 313 316 312 314 316 313 314 314 316 315 316 319 324 322 323 324 321 318 318 311 307 305 303
320 320 317 317 318 318 319 320 324 325 319 319 318 316 319 317 313 312 311 312 316 317 319 317 316 314 313 315 312 315 319 326 326 324 326 318 323 323 321 314 315 311 307 305 302
320 321 318 318 318 318 318 323 326 320 319 317 317 317 321 316 315 313 313 316 315 318 322 324 326 318 313 319 320 316 321 327 332 330 326 312 320 320 315 312 310 310 306 304 302
319 319 318 318 318 318 319 325 324 320 319 318 317 320 321 316 316 314 316 319 319 317 322 324 325 315 315 315 319 317 319 320 322 314 321 320 317 317 309 308 307 309 306 304 302
315 317 318 318 318 316 321 323 323 319 319 321 320 320 323 319 318 317 319 319 320 317 318 321 324 314 312 310 312 315 315 318 318 329 329 324 323 322 313 311 308 308 306 304 302
313 317 319 319 316 319 320 319 322 320 320 321 320 321 321 321 318 317 321 319 318 317 316 319 320 316 311 313 316 314 315 316 318 321 328 327 323 319 319 314 310 308 306 304 302
313 318 318 318 320 320 320 319 318 320 320 320 320 321 321 320 318 319 320 320 315 315 316 318 319 326 319 313 312 315 316 316 321 322 318 321 324 311 317 316 312 308 306 305 303
314 315 317 319 323 322 320 319 319 319 321 321 321 320 321 320 319 319 319 318 315 314 317 316 320 326 325 314 310 312 313 315 316 321 323 325 324 309 308 310 310 309 307 306 303
314 318 316 318 320 320 319 321 320 319 319 320 321 320 322 323 319 322 322 315 314 314 315 315 320 324 328 324 318 315 314 313 315 319 320 322 321 311 309 309 308 309 308 306 304
312 311 314 319 316 320 320 319 321 321 319 319 320 321 323 324 323 321 321 314 311 311 313 316 322 322 322 322 321 317 316 314 314 316 320 320 320 319 311 310 310 308 307 306 304
311 310 311 313 314 318 322 319 320 321 320 320 321 321 321 323 323 325 321 320 318 311 311 313 320 318 320 320 320 319 317 316 314 314 316 317 318 317 312 310 310 309 307 305 304
303 303 311 312 313 314 316 320 319 319 319 319 319 320 321 320 321 320 319 320 320 317 312 313 315 317 322 319 319 317 318 317 316 314 315 317 316 314 312 309 308 308 306 305 304
Wind_Speed
2 1 1 1 1 2 3 4 5 6 8 9 10 11 11 11 11 4 3 2 2 3 2 1 2 1 1 2 2 2 4 6 5 8 6 7 8 3 1 3 4 3 4 4 5
3 2 3 3 3 4 4 4 6 7 8 10 11 12 12 12 7 6 4 3 2 5 2 5 4 3 2 1 1 4 4 2 3 2 5 8 6 6 5 6 6 5 7 5 6
6 5 4 4 4 5 5 6 6 7 8 10 12 12 12 11 5 2 1 3 5 4 2 2 1 3 3 1 1 0 5 2 4 3 2 7 5 3 6 6 2 3 6 4 5
8 7 6 5 5 6 6 7 7 8 9 11 12 12 11 4 4 1 2 4 5 4 3 4 4 3 3 4 1 5 1 1 2 3 3 5 1 5 6 5 7 6 5 4 5
10 9 9 8 7 7 7 7 7 8 10 11 11 11 6 5 2 1 3 5 6 4 4 3 4 2 6 1 2 5 3 3 3 4 3 1 7 7 7 7 7 7 5 5 5
12 10 10 9 9 8 7 8 9 9 10 11 11 8 4 9 0 3 4 6 4 5 4 4 2 2 2 2 4 2 3 4 5 7 6 6 9 3 7 9 7 6 5 4 5
13 12 11 9 9 9 8 8 9 10 10 10 8 4 6 8 1 3 5 4 4 3 4 1 1 4 1 2 1 1 5 8 11 9 4 7 11 13 8 11 9 7 5 3 4
15 13 12 10 9 9 8 8 9 9 9 7 6 3 6 4 3 4 5 3 4 2 2 3 1 2 3 2 3 4 4 8 7 8 4 8 12 9 11 13 11 8 5 3 3
17 16 14 11 10 10 9 8 9 9 8 6 4 4 5 1 3 6 5 4 6 5 4 4 2 2 4 6 6 8 10 9 6 9 5 11 5 9 12 12 10 9 7 5 5
19 17 15 12 10 10 9 8 9 9 5 3 3 4 6 2 4 6 4 10 3 9 6 5 5 7 8 10 10 10 11 10 11 7 8 10 14 8 12 12 12 9 8 7 6
21 19 16 13 10 9 5 5 5 4 6 9 3 4 4 4 5 6 7 8 6 8 9 9 9 14 18 17 17 8 9 12 7 3 4 13 15 12 14 13 14 12 11 10 9
23 21 16 12 10 7 4 5 5 3 7 17 14 9 3 6 4 8 10 10 9 13 12 5 16 18 12 10 14 13 14 16 13 4 4 12 16 16 15 19 17 15 12 11 9
25 22 19 12 9 10 12 8 3 2 6 10 9 8 6 12 8 14 16 8 10 15 16 17 5 5 10 8 12 15 15 14 14 2 10 13 19 22 24 16 12 11 11 12 13
29 24 20 14 9 11 10 14 5 2 6 15 9 8 9 9 8 6 22 5 5 15 14 14 12 6 10 15 14 16 13 14 11 6 10 5 10 12 10 17 16 14 15 14 14
32 31 25 28 6 20 5 15 13 3 8 4 8 3 5 15 11 5 8 5 13 10 8 5 9 11 13 13 11 8 2 6 10 13 14 16 9 14 11 16 18 18 18 16 15
34 35 32 30 17 12 12 19 11 6 17 6 6 8 10 12 4 6 7 3 3 8 9 12 3 6 9 3 8 10 5 3 2 7 10 17 16 11 11 15 16 18 18 18 18
40 40 42 34 17 21 19 14 7 13 7 11 7 9 15 10 8 9 15 14 12 9 16 14 15 6 5 5 3 13 9 4 5 6 8 1 14 15 6 7 7 20 21 21 19
37 42 47 37 30 32 23 10 13 31 30 10 5 10 14 13 9 10 13 13 23 17 10 14 9 22 17 21 10 19 17 6 7 6 5 2 9 6 3 8 5 15 19 19 19
28 45 38 41 37 40 10 18 28 36 21 15 9 8 14 10 7 11 15 13 15 22 14 10 10 6 9 9 16 7 14 13 5 2 4 7 11 9 8 8 8 14 18 20 20
13 20 29 42 45 29 13 24 27 23 22 19 26 18 17 15 13 16 17 13 14 23 15 4 7 5 5 3 5 8 8 5 6 6 7 9 16 10 8 15 15 17 19 19 18
14 4 14 41 42 12 14 18 29 18 25 18 24 22 20 15 18 13 10 7 19 19 20 8 6 6 7 12 17 7 9 9 5 9 4 5 8 9 15 17 21 18 17 20 20
5 5 17 46 15 10 18 38 20 24 13 17 16 23 19 19 16 19 17 14 19 18 16 14 3 10 13 2 9 17 14 19 6 6 5 4 14 2 2 11 14 16 17 18 19
3 4 13 38 17 15 22 27 25 27 31 22 23 17 20 19 11 20 17 11 17 17 19 14 4 3 5 2 1 9 15 16 17 2 15 7 7 2 4 4 10 14 17 16 18
3 4 7 8 14 22 17 24 30 22 24 29 21 15 17 21 19 11 17 8 14 15 7 12 6 12 18 9 9 9 16 21 18 11 18 25 17 6 9 11 12 12 14 17 17
3 4 3 4 16 17 24 16 24 22 25 21 23 28 23 17 20 25 15 4 3 7 7 13 12 18 25 22 16 9 18 24 28 36 17 28 23 15 14 15 17 15 13 15 15
4 4 3 4 2 15 18 23 26 25 17 31 19 29 26 28 27 18 19 16 12 10 10 4 9 16 23 22 22 21 18 24 30 31 30 29 28 3 15 12 11 13 14 14 14
3 4 4 6 4 7 4 9 23 23 19 18 34 24 24 34 25 19 14 15 13 17 14 11 7 7 15 13 18 7 39 22 24 29 23 27 28 6 7 11 11 10 10 11 13
Wind_Direction
184 197 231 262 320 334 348 347 347 351 357 352 347 340 336 332 323 313 260 224 187 186 175 223 240 277 263 96 349 296 241 219 197 204 168 150 180 150 73 176 84 38 40 43 8
223 250 277 296 309 319 324 330 337 344 347 346 342 339 335 330 311 256 252 215 204 171 210 218 208 213 175 143 202 268 262 200 10 169 175 167 210 171 206 178 154 124 96 62 55
230 241 258 283 298 309 319 324 331 337 338 338 339 336 332 331 282 98 220 176 160 160 215 222 217 248 219 260 166 155 290 114 138 110 136 163 193 201 231 225 24 200 125 74 61
249 255 264 273 285 298 309 316 323 329 328 333 335 333 329 315 305 98 176 171 169 160 169 176 211 225 261 243 213 242 156 185 125 146 169 194 123 227 236 64 87 78 93 94 60
245 255 266 275 284 289 295 306 314 324 326 326 330 331 335 253 292 192 172 170 159 165 196 211 235 271 262 254 222 246 173 199 163 175 225 348 238 263 214 134 120 110 109 83 64
247 252 258 267 273 281 290 298 308 316 321 321 325 324 287 265 226 212 173 164 181 191 195 223 299 289 290 251 245 26 236 217 209 217 227 233 243 208 199 152 148 146 112 86 67
245 248 253 259 265 272 280 290 300 309 316 319 324 324 255 271 209 200 167 162 176 213 202 249 244 236 171 207 170 255 262 224 225 218 237 217 246 230 148 166 162 154 145 106 60
243 243 246 253 264 269 273 283 292 304 309 314 324 307 271 234 191 190 168 128 128 113 107 118 160 133 286 112 188 244 246 244 120 175 165 200 263 160 156 167 170 166 161 145 78
239 243 242 246 254 265 270 275 287 296 297 302 311 273 259 128 191 190 187 178 133 111 94 121 179 222 178 224 234 212 263 215 186 199 152 203 257 147 174 189 178 185 180 174 146
238 241 238 237 246 259 268 278 286 293 294 267 252 259 189 179 145 161 165 160 145 142 132 182 208 218 223 216 233 258 228 248 259 158 220 213 247 169 192 203 204 198 190 181 173
233 235 232 232 237 249 273 283 236 207 207 219 217 248 147 119 130 171 162 157 147 197 203 202 216 218 224 226 252 292 280 267 280 94 266 242 251 234 194 213 217 208 198 189 180
237 229 224 223 229 216 217 237 349 9 291 230 241 250 189 179 155 176 166 183 194 208 207 186 229 238 241 267 237 240 253 257 268 146 255 272 262 258 207 211 214 213 207 192 166
239 230 220 214 217 203 212 225 282 2 260 246 207 223 196 177 211 181 181 200 208 217 201 226 220 254 197 211 220 235 240 253 262 136 237 274 268 253 244 205 219 239 209 188 182
235 227 215 200 195 208 220 226 230 340 268 246 204 216 162 185 225 155 195 182 202 220 213 242 234 161 207 227 219 246 226 254 264 254 265 162 283 280 241 203 211 207 202 189 178
231 222 208 202 187 191 197 203 188 284 272 26 131 98 162 190 119 172 179 187 208 186 180 206 188 200 212 223 208 248 62 232 251 261 273 252 268 265 247 219 208 206 199 192 177
235 223 209 209 224 199 188 161 153 205 239 163 135 167 160 198 158 114 171 236 313 203 235 257 20 211 227 89 206 130 125 117 229 255 251 233 227 255 202 232 224 189 192 186 177
244 236 211 196 196 186 174 152 180 221 141 188 170 178 193 175 172 179 181 186 184 190 222 216 220 177 184 149 162 200 179 239 235 212 255 138 214 248 207 173 209 183 186 181 176
243 238 219 201 187 181 166 189 209 229 219 103 139 168 186 162 198 187 177 207 218 228 268 210 223 200 200 214 193 199 203 203 243 228 261 54 232 244 271 109 117 176 180 176 178
244 226 211 202 183 179 174 197 217 217 203 186 145 190 204 202 188 181 207 214 205 206 202 211 237 175 179 219 210 176 223 240 304 157 271 216 243 267 157 176 165 171 175 182 184
250 226 217 194 184 177 200 211 231 227 238 216 212 197 199 195 187 194 188 220 212 198 210 233 247 168 149 162 252 218 159 174 220 226 238 246 244 236 211 200 184 179 182 183 183
242 239 213 192 180 192 204 220 225 225 212 213 215 217 224 194 200 196 206 179 196 189 199 211 237 131 152 203 187 182 204 225 243 226 251 271 249 196 206 197 188 188 186 184 185
187 238 188 174 197 201 206 214 215 223 243 229 235 220 213 211 200 205 214 209 192 158 181 203 250 236 220 114 271 232 214 205 213 193 236 276 258 119 226 186 177 184 185 186 188
233 220 212 188 206 210 220 219 218 219 214 220 226 229 219 212 219 220 213 216 178 174 172 164 201 239 251 206 195 228 222 226 231 49 229 211 250 79 124 143 168 178 182 183 184
238 212 206 211 231 211 211 218 212 219 222 223 223 226 224 229 214 233 221 175 188 200 159 163 150 206 233 225 164 202 211 211 216 225 235 236 248 182 204 190 182 184 179 183 183
203 222 248 213 237 257 208 210 215 210 216 209 223 228 217 230 232 231 218 121 173 212 173 180 222 219 241 255 267 213 214 206 211 227 216 246 237 228 194 197 193 183 178 178 183
272 169 192 286 317 234 220 208 213 215 202 217 220 219 223 219 216 217 224 216 207 182 188 185 232 224 254 243 244 242 238 217 216 229 233 248 254 230 184 188 183 180 172 186 189
260 296 276 174 229 251 268 237 216 217 224 221 221 226 222 229 235 250 238 226 220 198 184 163 202 193 245 225 245 275 236 227 229 225 226 234 246 169 162 181 193 176 179 197 200